Weather History for Arlington, TX

Change the Weather History Date:

Friday, January 10, 2014

  Actual Average (KRBD) Record (KRBD)
Temperature  
Mean Temperature 58 °F -  
Max Temperature 69 °F 54 °F 72 °F (2000)
Min Temperature 42 °F 36 °F 25 °F (1999)
Degree Days  
Heating Degree Days 8    
Growing Degree Days 8 (Base 50)    
Moisture  
Dew Point 54 °F    
Average Humidity 85    
Maximum Humidity 100    
Minimum Humidity 51    
Precipitation  
Precipitation 0.05 in - - ()
Sea Level Pressure  
Sea Level Pressure 29.83 in    
Wind  
Wind Speed 5 mph (South)    
Max Wind Speed 15 mph    
Max Gust Speed 24 mph    
Visibility 8 miles    
Events Fog , Rain    
Averages and records for this station are not official NWS values.
T = Trace of Precipitation, MM = Missing Value Source: NWS Daily Summary

Daily Weather History Graph

Daily Weather History Graph

Search for Another Location

Airport:

Trip Planner

Search our weather history database for the weather conditions in past years. The results will help you decide how hot, cold, wet, or windy it might be!

Date:

Astronomy

Jan. 10, 2014 Rise Set
Actual Time 7:31 AM CST 5:40 PM CST
Civil Twilight 7:04 AM CST 6:07 PM CST
Nautical Twilight 6:33 AM CST 6:38 PM CST
Astronomical Twilight 6:04 AM CST 7:07 PM CST
Moon 1:41 PM CST (1/10) 2:45 AM CST (1/10)
Length of Visible Light 11h 03m
Length of Day
10h 09m
Waxing Gibbous, 75% of the Moon is Illuminated
Jan 10
Waxing Gibbous
Jan 15
Full
Jan 23
Last Quarter
Jan 30
New
Feb 6
First Quarter

Hourly Weather History & Observations

Time (CST) Temp. Dew Point Humidity Pressure Visibility Wind Dir Wind Speed Gust Speed Precip Events Conditions
12:53 AM 48.9 °F 48.0 °F 97% 29.96 in 0.5 mi Calm Calm - 0.00 in Fog Fog
1:53 AM 48.9 °F 48.9 °F 100% 29.94 in 0.2 mi Calm Calm - N/A Fog Fog
2:53 AM 50.0 °F 48.9 °F 96% 29.91 in 0.5 mi Calm Calm - 0.00 in Fog , Rain Light Rain
3:46 AM 51.8 °F 50.0 °F 94% 29.90 in 1.0 mi Calm Calm - 0.01 in Rain Light Rain
3:53 AM 51.1 °F 50.0 °F 96% 29.90 in 1.0 mi Calm Calm - 0.01 in   Mist
4:16 AM 53.6 °F 51.8 °F 94% 29.90 in 0.8 mi Calm Calm - 0.00 in Rain Light Rain
4:30 AM 57.2 °F 55.4 °F 94% 29.89 in 2.0 mi South 6.9 mph - 0.01 in Rain Light Rain
4:38 AM 57.2 °F 57.2 °F 100% 29.89 in 7.0 mi South 5.8 mph - 0.01 in   Overcast
4:53 AM 59.0 °F 57.9 °F 96% 29.88 in 7.0 mi South 5.8 mph - 0.01 in   Overcast
5:12 AM 59.0 °F 57.2 °F 94% 29.88 in 8.0 mi SSE 6.9 mph - N/A   Overcast
5:53 AM 61.0 °F 59.0 °F 93% 29.85 in 9.0 mi SSE 13.8 mph - N/A   Overcast
6:35 AM 62.6 °F 60.8 °F 94% 29.86 in 10.0 mi South 11.5 mph 18.4 mph N/A   Overcast
6:53 AM 62.1 °F 60.1 °F 93% 29.86 in 10.0 mi South 10.4 mph 18.4 mph N/A   Overcast
7:45 AM 62.6 °F 60.8 °F 94% 29.87 in 10.0 mi South 11.5 mph - 0.01 in Rain Light Rain
7:53 AM 62.1 °F 60.1 °F 93% 29.86 in 10.0 mi South 10.4 mph 18.4 mph 0.01 in Rain Light Rain
8:01 AM 62.6 °F 60.8 °F 94% 29.87 in 10.0 mi South 11.5 mph 19.6 mph 0.00 in Rain Light Rain
8:09 AM 62.6 °F 60.8 °F 94% 29.87 in 10.0 mi South 11.5 mph 19.6 mph 0.00 in   Overcast
8:34 AM 62.6 °F 60.8 °F 94% 29.86 in 10.0 mi South 12.7 mph 19.6 mph 0.00 in   Overcast
8:41 AM 62.6 °F 60.8 °F 94% 29.86 in 10.0 mi South 10.4 mph 19.6 mph 0.00 in Rain Light Rain
8:53 AM 62.1 °F 60.1 °F 93% 29.85 in 10.0 mi South 11.5 mph - 0.00 in   Overcast
9:53 AM 63.0 °F 60.1 °F 90% 29.85 in 10.0 mi South 11.5 mph - N/A   Overcast
10:02 AM 62.6 °F 60.8 °F 94% 29.86 in 10.0 mi South 9.2 mph - 0.00 in Rain Light Rain
10:53 AM 63.0 °F 60.1 °F 90% 29.83 in 10.0 mi South 9.2 mph 19.6 mph 0.02 in   Overcast
11:53 AM 64.0 °F 60.1 °F 87% 29.78 in 10.0 mi South 10.4 mph 20.7 mph N/A   Overcast
12:53 PM 64.0 °F 60.1 °F 87% 29.72 in 10.0 mi South 10.4 mph - 0.00 in   Overcast
1:53 PM 66.0 °F 59.0 °F 78% 29.69 in 10.0 mi SW 9.2 mph - N/A   Mostly Cloudy
2:53 PM 66.9 °F 60.1 °F 79% 29.68 in 10.0 mi SSW 8.1 mph - N/A   Mostly Cloudy
3:53 PM 69.1 °F 57.0 °F 65% 29.66 in 10.0 mi SSW 6.9 mph - N/A   Clear
4:53 PM 69.1 °F 57.9 °F 68% 29.67 in 10.0 mi South 10.4 mph 16.1 mph N/A   Clear
5:53 PM 66.9 °F 48.9 °F 52% 29.69 in 10.0 mi SW 5.8 mph - N/A   Clear
6:53 PM 62.1 °F 48.0 °F 60% 29.70 in 10.0 mi South 3.5 mph - N/A   Clear
7:53 PM 57.0 °F 48.0 °F 72% 29.74 in 10.0 mi NW 15.0 mph 24.2 mph N/A   Clear
8:28 PM 59.0 °F 41.0 °F 51% 29.78 in 10.0 mi NNW 12.7 mph - N/A   Clear
8:53 PM 55.9 °F 39.0 °F 53% 29.78 in 10.0 mi NW 8.1 mph - N/A   Clear
9:53 PM 52.0 °F 37.0 °F 57% 29.81 in 10.0 mi NNW 5.8 mph - N/A   Clear
10:53 PM 46.0 °F 37.0 °F 71% 29.81 in 10.0 mi Calm Calm - N/A   Clear
11:53 PM 42.1 °F 37.0 °F 82% 29.82 in 10.0 mi Calm Calm - N/A   Clear